Regional Weather Roundup
Issued by NWS Newport/Morehead, NC

Current Version | Previous Version | Graphics & Text | Print | Product List | Glossary Off
Versions: 1 2 3 4 5 6 7 8 9 10 11 12 13 14 15 16 17 18 19 20 21 22 23 24 25 26 27 28 29 30 31 32 33 34 35 36 37 38 39 40 41 42 43 44 45 46 47 48 49 50

000
ASUS42 KMHX 250725
RWRMHX
WEATHER ROUNDUP FOR EASTERN NORTH CAROLINA
NATIONAL WEATHER SERVICE NEWPORT/MOREHEAD CITY NC
300 AM EDT FRI MAY 25 2018

NOTE: "FAIR" INDICATES FEW OR NO CLOUDS BELOW 12,000 FEET
WITH NO SIGNIFICANT WEATHER AND/OR OBSTRUCTIONS TO VISIBILITY

NCZ015>017-031-032-045>047-102-103-250800-
NORTH COAST

CITY           SKY/WX    TMP DP  RH WIND       PRES   REMARKS
EDENTON        FAIR      61  59  93 CALM      30.15S
ELIZABETH CITY FAIR      64  64 100 CALM      30.14F FOG
KITTY HAWK     FAIR      64  64 100 CALM      30.13F FOG
MANTEO         FAIR      61  60  98 CALM      30.15F FOG

$$

NCZ045>047-081-094-103-104-250800-
CENTRAL COAST

CITY           SKY/WX    TMP DP  RH WIND       PRES   REMARKS
FRISCO         FAIR      67  58  72 NE5       30.13F

$$

NCZ095-097-098-100-101-250800-
SOUTHERN COAST

CITY           SKY/WX    TMP DP  RH WIND       PRES   REMARKS
BEAUFORT       FAIR      68  66  93 CALM      30.12F
CEDAR ISLAND   NOT AVBL
JACKSONVILLE   FAIR      66  64  93 N3        30.12F
PINEY ISLAND   NOT AVBL
WILMINGTON     CLOUDY    70  67  90 NE3       30.12S


$$

NCZ011>013-027>030-043-044-078>080-089-090>093-098-250800-
COASTAL PLAIN

CITY           SKY/WX    TMP DP  RH WIND       PRES   REMARKS
AHOSKIE        FAIR      57  57 100 CALM      30.15S FOG
CLINTON        FAIR      66  66 100 CALM      30.14S
ELIZABETHTOWN  FAIR      67  66  97 CALM      30.13S
GOLDSBORO      FAIR      65  61  87 CALM      30.13S
GREENVILLE     FAIR      63  61  94 CALM      30.15F
HAVELOCK       NOT AVBL
KENANSVILLE    FAIR      61  61 100 CALM      30.14S FOG
KINSTON        NOT AVBL
NEW BERN       FAIR      62  62 100 CALM      30.14F
RICHLANDS      FAIR      63  62  97 CALM      30.13F
ROCKY MOUNT    FAIR      62  61  96 CALM      30.15S
WASHINGTON     FAIR      61  60  97 CALM      30.14F
WHITEVILLE     MOCLDY    70  69  95 CALM      30.11F

$$

AMZ130-135-150-152-154-156-158-170-250-252-270-ANZ085-086-088-633-658-670-250800-
MARINE OBSERVATIONS

STATION/POSITION TIME  TEMP    WIND        PRES    WAVE   SWELL
                       AIR SEA DIR/SP/G            HT/PER HT/PER
                 (UTC) (F)     (DEG/KT/KT) (MB)    (FT/S) (FT/S)
CHESAPEAKE LIGHT NOT AVBL
64 E VA BEACH    0650   65 66  170/  4/  4 1021.1    2/ 9   2/ 9
DUCK             0700   69 72  140/  4/  4 1020.2
2 E DUCK         0630      72                N/A     2/ 8
OREGON INLET     0654   66 74  100/  4/  4 1020.5
13E OREGON INLT  0648      70                N/A     2/ 8   2/ 8
HATTERAS CG      0700   69 76   80/  3/  5 1020.0
DIAMOND BUOY     0710   77 78  130/  8/ 10 1020.4
CAPE LOOKOUT     0700           90/  5/  6 1020.1
BEAUFORT LAB     0654   71 78   40/  4/  5 1020.2
30 SE NEW RVR IN 0708   76     140/  6/  8 1019.5
30 SE NEW RVR IN 0630      76                N/A     3/ 8
27 SE WRIGHTSVLE 0708   75 75  110/  6/ 12 1019.4
5 SE WRIGHTSVLE  0708   73 74  110/  6/  8 1018.9
225 S CAPE HAT   0710      78  130/  4/  6 1018.7
41 SE CHARLESTON 0700      76  100/  4/  6 1018.7

$$




USA.gov is the U.S. government's official web portal to all federal, state and local government web resources and services.